GW7302 Weather Reports


time (UTC)temp
C
wind
direction
speed
KPH
gust
KPH
rain 1hr
cm
rain 24hr
cm
rain mn
cm
humidity
%
barometer
mb
20260505111507 10 32 0.0 0.0 0.00 0.00 0.00 93 1012.3
20260505101524 9 5 0.0 1.6 0.00 0.00 0.00 92 1011.9
20260505100020 9 5 0.0 3.2 0.00 0.00 0.00 91 1011.7
20260505094514 9 5 0.0 3.2 0.00 0.00 0.00 91 1011.6
20260505093028 10 352 0.0 1.6 0.00 0.00 0.00 90 1011.6
20260505091524 10 324 0.0 3.2 0.00 0.00 0.00 89 1011.6
20260505090018 11 325 0.0 3.2 0.00 0.00 0.00 87 1011.5
20260505084520 11 11 1.6 3.2 0.00 0.00 0.00 86 1011.3
20260505083025 11 349 0.0 3.2 0.00 0.00 0.00 85 1011.4
20260505081524 11 349 0.0 0.0 0.00 0.00 0.00 84 1011.4
20260505080024 11 349 0.0 0.0 0.00 0.00 0.00 82 1011.2
20260505074525 12 349 0.0 0.0 0.00 0.00 0.00 81 1011.5
20260505073027 12 349 0.0 0.0 0.00 0.00 0.00 80 1011.4
20260505071526 12 349 0.0 3.2 0.00 0.00 0.00 78 1011.4
20260505070026 12 349 0.0 3.2 0.00 0.00 0.00 79 1011.6
20260505064526 12 349 0.0 3.2 0.00 0.00 0.00 78 1011.5
20260505063026 12 349 0.0 3.2 0.00 0.00 0.00 79 1011.6
20260505061538 12 9 0.0 3.2 0.00 0.00 0.00 79 1011.6
20260505060027 13 13 1.6 4.8 0.00 0.00 0.00 75 1011.5
20260505054527 13 5 0.0 3.2 0.00 0.00 0.00 70 1011.5
20260505053033 13 153 0.0 6.4 0.00 0.00 0.00 73 1011.5
20260505051530 11 271 1.6 4.8 0.00 0.00 0.00 80 1011.6
20260505041516 10 215 0.0 3.2 0.00 0.00 0.00 82 1011.8
20260505040018 10 103 0.0 3.2 0.00 0.00 0.00 81 1011.5
20260505034520 11 66 1.6 3.2 0.00 0.00 0.00 80 1011.2
20260505033025 11 74 0.0 1.6 0.00 0.00 0.00 79 1011.3
20260505031523 11 74 0.0 3.2 0.00 0.00 0.00 80 1011.2
20260505030024 11 74 0.0 3.2 0.00 0.00 0.00 78 1011.3
20260505024506 12 74 0.0 3.2 0.00 0.00 0.00 76 1011.3
20260505023004 12 65 0.0 6.4 0.00 0.00 0.00 73 1011.3
20260505021504 13 80 0.0 25.7 0.00 0.00 0.00 72 1011.6
20260505020007 13 78 0.0 3.2 0.00 0.00 0.00 72 1011.7
20260505014504 13 66 0.0 3.2 0.00 0.00 0.00 68 1011.6
20260505013004 15 52 1.6 3.2 0.00 0.00 0.00 65 1011.5
20260505011506 15 82 0.0 3.2 0.00 0.00 0.00 60 1011.4
20260505010009 16 59 0.0 4.8 0.00 0.00 0.00 57 1011.3
20260505004510 16 360 0.0 3.2 0.00 0.00 0.00 58 1011.1
20260505003020 18 82 0.0 6.4 0.00 0.00 0.00 49 1010.9
20260505001514 18 88 0.0 9.7 0.00 0.00 0.00 43 1010.9
20260505000014 19 102 3.2 8.0 0.00 0.00 0.00 43 1010.7
20260504234515 20 182 4.8 11.3 0.00 0.00 0.00 41 1010.7
20260504233016 20 54 1.6 14.5 0.00 0.00 0.00 39 1010.7
20260504231517 20 120 4.8 12.9 0.00 0.00 0.00 40 1010.5
20260504230017 21 171 1.6 8.0 0.00 0.00 0.00 40 1010.4
20260504224521 21 134 8.0 17.7 0.00 0.00 0.00 39 1010.4
20260504223022 21 184 4.8 17.7 0.00 0.00 0.00 37 1010.3
20260504221519 21 207 6.4 24.1 0.00 0.00 0.00 39 1010.6
20260504220022 22 124 4.8 17.7 0.00 0.00 0.00 37 1010.6
20260504214524 22 236 6.4 14.5 0.00 0.00 0.00 38 1010.3
20260504213023 22 187 3.2 17.7 0.00 0.00 0.00 36 1010.5
20260504211524 22 223 8.0 19.3 0.00 0.00 0.00 38 1010.5
20260504210031 22 226 3.2 17.7 0.00 0.00 0.00 41 1010.5
20260504204527 22 211 8.0 20.9 0.00 0.00 0.00 38 1010.5
20260504203039 23 296 8.0 17.7 0.00 0.00 0.00 39 1010.6
20260504201525 22 233 3.2 20.9 0.00 0.00 0.00 39 1010.9
20260504200011 22 205 11.3 22.5 0.00 0.00 0.00 41 1011.1
20260504194512 22 225 9.7 19.3 0.00 0.00 0.00 39 1011.2
20260504193017 22 267 4.8 24.1 0.00 0.00 0.00 37 1011.3
20260504191522 22 232 3.2 17.7 0.00 0.00 0.00 37 1011.4
20260504190014 22 227 9.7 20.9 0.00 0.00 0.00 40 1011.6
20260504184519 22 189 3.2 16.1 0.00 0.00 0.00 41 1011.9
20260504183018 21 245 11.3 24.1 0.00 0.00 0.00 38 1012.0
20260504181520 22 248 4.8 16.1 0.00 0.00 0.00 38 1012.2
20260504180017 21 230 6.4 19.3 0.00 0.00 0.00 39 1012.4
20260504174501 21 136 6.4 20.9 0.00 0.00 0.00 38 1012.6
20260504173002 21 194 6.4 19.3 0.00 0.00 0.00 42 1013.0
20260504171502 20 269 6.4 19.3 0.00 0.00 0.00 39 1013.1